Location: Barcelona
(41.3830°N, 2.1830°E)
Time: 00:01:45
(UTC+02:00)

ISS - Pass Details

Date: 03 August 2020
Orbit: 418 x 420 km, 51.6° (Epoch: 08 August)

Event Time Altitude Azimuth Distance (km) Brightness Sun altitude
Rises 21:58:57 0° 301° (WNW) 2,368 2.5 -9.6°
Reaches altitude 10° 22:01:06 10° 295° (WNW) 1,501 0.6 -9.9°
Maximum altitude 22:04:20 46° 221° (SW) 570 -3.1 -10.4°
Enters shadow 22:06:56 15° 150° (SSE) 1,247 -1.9 -10.8°
